User: anonymous   Login
Location: Gro�sch�nbrunn
(49.5760°N, 11.8868°E)
Time: 13:24:12
(UTC+00:00)
Language:

HJ-1C - Orbit

View from above orbital plane
View from above orbital plane
View from above satellite
View from above satellite

Ground track
Ground track

The orbit data is extracted from the following two-line orbital elements,

1 38997U 12064A   20331.07513272  .00004912  00000-0  11308-3 0  9997
2 38997  97.1404 358.1191 0010873 131.2856 313.4478 15.43022464450703
Epoch (UTC): 26 November 2020 01:48:11
Eccentricity: 0.0010873
inclination: 97.1404°
perigee height: 430 km
apogee height: 444 km
right ascension of ascending node: 358.1191°
argument of perigee: 131.2856°
revolutions per day: 15.43022464
mean anomaly at epoch: 313.4478°
orbit number at epoch: 45070

The dashed part of the orbit path shows where the satellite is in the earth's shadow,  

DLR